When you browse on this site, cookies collect data to enhance your experience and personalize the content and advertising you see.
Visit our Privacy Policy to learn more. By continuing to use the site, you agree to this use of cookies and data.
  • En España
  • Lista de países
  • Para 7 días
  • Temperatura del agua
  • El tiempo en el mapa
  • Informadores
  • user-avatar
    Iniciar sesión

    Tiempo cada hora Barnsley

    Hoy, 23 Febrero, Domingo

    Tiempo Temperatura Precipitaciones Viento Presión Humedad
    00:00 +4°C° 0.4 mm 8 mps 750 mmHg 84%
    01:00 +4°C° 1 mm 7 mps 749 mmHg 86%
    02:00 +4°C° 1 mm 6 mps 747 mmHg 87%
    03:00 +5°C° 1 mm 5 mps 746 mmHg 89%
    04:00 +6°C° 2.4 mm 4 mps 745 mmHg 91%
    05:00 +7°C° 2.4 mm 3 mps 744 mmHg 94%
    06:00 +7°C° 2.4 mm 2 mps 742 mmHg 96%
    07:00 +6°C° 0.3 mm 4 mps 743 mmHg 93%
    08:00 +5°C° 0.3 mm 6 mps 743 mmHg 90%
    09:00 +6°C° 0.3 mm 7 mps 744 mmHg 86%
    10:00 +5°C° 0.1 mm 8 mps 745 mmHg 81%
    11:00 +4°C° 0.1 mm 8 mps 747 mmHg 75%
    12:00 +2°C° 0.1 mm 9 mps 748 mmHg 69%
    13:00 +3°C° 0 mm 9 mps 749 mmHg 63%
    14:00 +3°C° 0 mm 9 mps 750 mmHg 57%
    15:00 +3°C° 0 mm 9 mps 751 mmHg 51%
    16:00 +2°C° 0 mm 8 mps 752 mmHg 55%
    17:00 +3°C° 0 mm 7 mps 753 mmHg 58%
    18:00 +2°C° 0 mm 5 mps 754 mmHg 61%
    19:00 +2°C° 0 mm 5 mps 754 mmHg 62%
    20:00 +3°C° 0 mm 4 mps 755 mmHg 63%
    21:00 +2°C° 0 mm 3 mps 755 mmHg 65%
    22:00 +2°C° 0 mm 3 mps 755 mmHg 67%
    23:00 +2°C° 0 mm 3 mps 755 mmHg 70%

    Mañana, 24 Febrero, Lunes

    Tiempo Temperatura Precipitaciones Viento Presión Humedad
    00:00 +3°C° 0 mm 2 mps 755 mmHg 73%
    01:00 +1°C° 1 mm 3 mps 753 mmHg 80%
    02:00 +1°C° 1 mm 3 mps 752 mmHg 87%
    03:00 0°C° 1 mm 3 mps 751 mmHg 94%
    04:00 0°C° 1.4 mm 4 mps 749 mmHg 94%
    05:00 0°C° 1.4 mm 5 mps 747 mmHg 95%
    06:00 +1°C° 1.4 mm 6 mps 745 mmHg 95%
    07:00 +2°C° 2.8 mm 7 mps 743 mmHg 95%
    08:00 +4°C° 2.8 mm 7 mps 742 mmHg 95%
    09:00 +6°C° 2.8 mm 8 mps 740 mmHg 95%
    10:00 +7°C° 0.2 mm 8 mps 739 mmHg 91%
    11:00 +9°C° 0.2 mm 8 mps 738 mmHg 87%
    12:00 +10°C° 0.2 mm 9 mps 737 mmHg 84%
    13:00 +8°C° 0 mm 9 mps 737 mmHg 82%
    14:00 +8°C° 0 mm 9 mps 737 mmHg 80%
    15:00 +8°C° 0 mm 9 mps 736 mmHg 78%
    16:00 +7°C° 0 mm 9 mps 737 mmHg 76%
    17:00 +5°C° 0 mm 10 mps 737 mmHg 74%
    18:00 +2°C° 0 mm 11 mps 738 mmHg 73%
    19:00 +2°C° 0.1 mm 10 mps 738 mmHg 72%
    20:00 +2°C° 0.1 mm 10 mps 739 mmHg 72%
    21:00 +1°C° 0.1 mm 10 mps 739 mmHg 71%
    22:00 +1°C° 0 mm 9 mps 739 mmHg 71%
    23:00 +1°C° 0 mm 9 mps 739 mmHg 70%

    Pasado mañana, 25 Febrero, Martes

    Tiempo Temperatura Precipitaciones Viento Presión Humedad
    00:00 0°C° 0 mm 9 mps 740 mmHg 69%
    01:00 0°C° 0.1 mm 9 mps 739 mmHg 72%
    02:00 0°C° 0.1 mm 8 mps 739 mmHg 75%
    03:00 0°C° 0.1 mm 8 mps 739 mmHg 78%
    04:00 0°C° 0.1 mm 8 mps 738 mmHg 76%
    05:00 0°C° 0.1 mm 8 mps 738 mmHg 75%
    06:00 0°C° 0.1 mm 7 mps 738 mmHg 73%
    07:00 0°C° 0.1 mm 7 mps 738 mmHg 73%
    08:00 0°C° 0.1 mm 8 mps 738 mmHg 73%
    09:00 +1°C° 0.1 mm 8 mps 737 mmHg 72%
    10:00 +1°C° 0.1 mm 8 mps 737 mmHg 69%
    11:00 +2°C° 0.1 mm 8 mps 737 mmHg 65%
    12:00 +2°C° 0.1 mm 8 mps 737 mmHg 62%
    13:00 +2°C° 0.1 mm 8 mps 736 mmHg 61%
    14:00 +4°C° 0.1 mm 7 mps 736 mmHg 61%
    15:00 +4°C° 0.1 mm 7 mps 735 mmHg 60%
    16:00 +3°C° 0 mm 5 mps 735 mmHg 65%
    17:00 +3°C° 0 mm 4 mps 734 mmHg 69%
    18:00 +2°C° 0 mm 3 mps 734 mmHg 74%
    19:00 +2°C° 0.6 mm 3 mps 734 mmHg 78%
    20:00 0°C° 0.6 mm 4 mps 734 mmHg 82%
    21:00 0°C° 0.6 mm 5 mps 733 mmHg 86%
    22:00 0°C° 0.1 mm 5 mps 734 mmHg 84%
    23:00 -1°C° 0.1 mm 6 mps 734 mmHg 83%

    26 Febrero, Miércoles

    Tiempo Temperatura Precipitaciones Viento Presión Humedad
    00:00 -1°C° 0.1 mm 6 mps 734 mmHg 81%
    01:00 -1°C° 0 mm 6 mps 734 mmHg 81%
    02:00 0°C° 0 mm 5 mps 735 mmHg 81%
    03:00 -1°C° 0 mm 5 mps 735 mmHg 81%
    04:00 0°C° 0 mm 5 mps 736 mmHg 81%
    05:00 0°C° 0 mm 5 mps 737 mmHg 80%
    06:00 0°C° 0 mm 5 mps 737 mmHg 80%
    07:00 0°C° 0 mm 5 mps 738 mmHg 77%
    08:00 +1°C° 0 mm 6 mps 739 mmHg 74%
    09:00 +1°C° 0 mm 6 mps 740 mmHg 72%
    10:00 +2°C° 0 mm 7 mps 741 mmHg 68%
    11:00 +3°C° 0 mm 7 mps 742 mmHg 65%
    12:00 +4°C° 0 mm 7 mps 743 mmHg 62%
    13:00 +4°C° 0 mm 7 mps 743 mmHg 61%
    14:00 +4°C° 0 mm 8 mps 743 mmHg 61%
    15:00 +4°C° 0 mm 8 mps 744 mmHg 60%
    16:00 +3°C° 0 mm 7 mps 744 mmHg 63%
    17:00 +2°C° 0 mm 7 mps 745 mmHg 66%
    18:00 +1°C° 0 mm 6 mps 745 mmHg 68%
    19:00 0°C° 0 mm 5 mps 746 mmHg 69%
    20:00 0°C° 0 mm 4 mps 746 mmHg 69%
    21:00 0°C° 0 mm 4 mps 746 mmHg 70%
    22:00 +1°C° 0 mm 3 mps 746 mmHg 73%
    23:00 +1°C° 0 mm 3 mps 745 mmHg 75%

    27 Febrero, Jueves

    Tiempo Temperatura Precipitaciones Viento Presión Humedad
    00:00 0°C° 0 mm 3 mps 745 mmHg 78%
    01:00 +1°C° 0 mm 3 mps 744 mmHg 80%
    02:00 +1°C° 0 mm 3 mps 744 mmHg 82%
    03:00 +1°C° 0 mm 3 mps 743 mmHg 84%
    04:00 0°C° 0.2 mm 4 mps 742 mmHg 86%
    05:00 0°C° 0.2 mm 4 mps 740 mmHg 89%
    06:00 0°C° 0.2 mm 5 mps 739 mmHg 92%
    07:00 0°C° 0.7 mm 5 mps 737 mmHg 93%
    08:00 +1°C° 0.7 mm 6 mps 736 mmHg 94%
    09:00 +1°C° 0.7 mm 6 mps 734 mmHg 95%
    10:00 +3°C° 0.1 mm 6 mps 733 mmHg 92%
    11:00 +4°C° 0.1 mm 6 mps 732 mmHg 90%
    12:00 +7°C° 0.1 mm 6 mps 732 mmHg 88%
    13:00 +6°C° 0 mm 8 mps 732 mmHg 81%
    14:00 +7°C° 0 mm 9 mps 732 mmHg 74%
    15:00 +7°C° 0 mm 10 mps 732 mmHg 67%
    16:00 +6°C° 0 mm 11 mps 732 mmHg 68%
    17:00 +4°C° 0 mm 11 mps 732 mmHg 68%
    18:00 +3°C° 0 mm 11 mps 733 mmHg 69%
    19:00 +3°C° 0 mm 11 mps 733 mmHg 68%
    20:00 +3°C° 0 mm 11 mps 734 mmHg 68%
    21:00 +2°C° 0 mm 11 mps 734 mmHg 67%
    22:00 +2°C° 0 mm 10 mps 735 mmHg 68%
    23:00 +2°C° 0 mm 10 mps 735 mmHg 69%

    28 Febrero, Viernes

    Tiempo Temperatura Precipitaciones Viento Presión Humedad
    00:00 +1°C° 0 mm 9 mps 736 mmHg 70%
    01:00 +1°C° 0 mm 9 mps 736 mmHg 71%
    02:00 +1°C° 0 mm 8 mps 737 mmHg 73%
    03:00 +2°C° 0 mm 7 mps 737 mmHg 74%
    04:00 +1°C° 0 mm 6 mps 737 mmHg 75%
    05:00 +1°C° 0 mm 5 mps 737 mmHg 76%
    06:00 +1°C° 0 mm 4 mps 737 mmHg 77%
    07:00 +1°C° 0 mm 4 mps 737 mmHg 77%
    08:00 +3°C° 0 mm 4 mps 737 mmHg 77%
    09:00 +3°C° 0 mm 4 mps 737 mmHg 78%
    10:00 +4°C° 0 mm 4 mps 737 mmHg 75%
    11:00 +5°C° 0 mm 4 mps 736 mmHg 73%
    12:00 +5°C° 0 mm 3 mps 736 mmHg 70%
    13:00 +5°C° 0.1 mm 3 mps 735 mmHg 72%
    14:00 +5°C° 0.1 mm 3 mps 735 mmHg 74%
    15:00 +6°C° 0.1 mm 2 mps 734 mmHg 75%
    16:00 +5°C° 0.1 mm 2 mps 733 mmHg 79%
    17:00 +5°C° 0.1 mm 2 mps 733 mmHg 83%
    18:00 +5°C° 0.1 mm 1 mps 732 mmHg 86%
    19:00 +5°C° 0 mm 1 mps 732 mmHg 87%
    20:00 +5°C° 0 mm 1 mps 732 mmHg 88%
    21:00 +4°C° 0 mm 1 mps 732 mmHg 89%
    22:00 +4°C° 0 mm 1 mps 731 mmHg 89%
    23:00 +4°C° 0 mm 1 mps 731 mmHg 90%
    Mostrar más